| time (UTC) | temp C | wind direction | speed KPH | gust KPH | rain 1hr cm | rain 24hr cm | rain mn cm | humidity % | barometer mb |
| 20260831032019 | 20 | 25 | 8.0 | 16.1 | 0.00 | 0.00 | 0.00 | 54 | 1013.0 |
| 20260831031956 | 20 | 6 | 8.0 | 20.9 | 0.00 | 0.00 | 0.00 | 54 | 1013.1 |
| 20260831031012 | 20 | 13 | 8.0 | 20.9 | 0.00 | 0.00 | 0.00 | 54 | 1013.2 |
| 20260831030512 | 21 | 30 | 8.0 | 17.7 | 0.00 | 0.00 | 0.00 | 54 | 1013.1 |
| 20260831030009 | 21 | 22 | 8.0 | 17.7 | 0.00 | 0.00 | 0.00 | 53 | 1013.2 |
| 20260831025507 | 21 | 39 | 8.0 | 17.7 | 0.00 | 0.00 | 0.00 | 52 | 1013.1 |
| 20260831025005 | 21 | 22 | 8.0 | 17.7 | 0.00 | 0.00 | 0.00 | 52 | 1013.1 |
| 20260831024504 | 21 | 45 | 8.0 | 17.7 | 0.00 | 0.00 | 0.00 | 51 | 1013.2 |
| 20260831024222 | 21 | 43 | 9.7 | 17.7 | 0.00 | 0.00 | 0.00 | 51 | 1013.2 |
| 20260831023455 | 21 | 45 | 9.7 | 17.7 | 0.00 | 0.00 | 0.00 | 50 | 1013.2 |
| 20260831022953 | 22 | 16 | 11.3 | 20.9 | 0.00 | 0.00 | 0.00 | 49 | 1013.2 |
| 20260831022454 | 22 | 36 | 11.3 | 20.9 | 0.00 | 0.00 | 0.00 | 47 | 1013.1 |
| 20260831021953 | 22 | 5 | 12.9 | 24.1 | 0.00 | 0.00 | 0.00 | 47 | 1013.1 |
| 20260831021452 | 22 | 20 | 12.9 | 24.1 | 0.00 | 0.00 | 0.00 | 46 | 1013.2 |
| 20260831021208 | 22 | 16 | 11.3 | 20.9 | 0.00 | 0.00 | 0.00 | 46 | 1013.2 |
| 20260831020449 | 22 | 6 | 12.9 | 22.5 | 0.00 | 0.00 | 0.00 | 46 | 1013.2 |
| 20260831015949 | 22 | 27 | 12.9 | 25.7 | 0.00 | 0.00 | 0.00 | 45 | 1013.3 |
| 20260831015710 | 22 | 353 | 12.9 | 25.7 | 0.00 | 0.00 | 0.00 | 44 | 1013.2 |
| 20260831014947 | 23 | 12 | 12.9 | 20.9 | 0.00 | 0.00 | 0.00 | 42 | 1013.3 |
| 20260831014450 | 23 | 324 | 12.9 | 27.4 | 0.00 | 0.00 | 0.00 | 42 | 1013.3 |
| 20260831013948 | 23 | 333 | 14.5 | 27.4 | 0.00 | 0.00 | 0.00 | 40 | 1013.3 |
| 20260831013445 | 23 | 9 | 14.5 | 25.7 | 0.00 | 0.00 | 0.00 | 39 | 1013.3 |
| 20260831012945 | 23 | 10 | 14.5 | 25.7 | 0.00 | 0.00 | 0.00 | 38 | 1013.3 |
| 20260831012445 | 23 | 50 | 14.5 | 25.7 | 0.00 | 0.00 | 0.00 | 38 | 1013.3 |
| 20260831011941 | 23 | 347 | 14.5 | 25.7 | 0.00 | 0.00 | 0.00 | 37 | 1013.4 |
| 20260831011702 | 23 | 352 | 14.5 | 27.4 | 0.00 | 0.00 | 0.00 | 36 | 1013.4 |
| 20260831010942 | 23 | 2 | 14.5 | 27.4 | 0.00 | 0.00 | 0.00 | 36 | 1013.4 |
| 20260831010442 | 24 | 18 | 12.9 | 25.7 | 0.00 | 0.00 | 0.00 | 36 | 1013.5 |
| 20260831005941 | 24 | 356 | 12.9 | 32.2 | 0.00 | 0.00 | 0.00 | 35 | 1013.5 |
| 20260831005441 | 24 | 52 | 12.9 | 32.2 | 0.00 | 0.00 | 0.00 | 36 | 1013.4 |
| 20260831004943 | 24 | 10 | 12.9 | 24.1 | 0.00 | 0.00 | 0.00 | 36 | 1013.5 |
| 20260831004437 | 24 | 347 | 14.5 | 29.0 | 0.00 | 0.00 | 0.00 | 35 | 1013.8 |
| 20260831004420 | 24 | 0 | 14.5 | 29.0 | 0.00 | 0.00 | 0.00 | 35 | 1013.9 |
| 20260831003437 | 24 | 1 | 12.9 | 22.5 | 0.00 | 0.00 | 0.00 | 35 | 1014.0 |
| 20260831002939 | 24 | 38 | 14.5 | 24.1 | 0.00 | 0.00 | 0.00 | 36 | 1014.0 |
| 20260831002440 | 24 | 359 | 16.1 | 25.7 | 0.00 | 0.00 | 0.00 | 35 | 1014.1 |
| 20260831002203 | 25 | 63 | 12.9 | 25.7 | 0.00 | 0.00 | 0.00 | 36 | 1014.0 |
| 20260831001438 | 25 | 357 | 11.3 | 29.0 | 0.00 | 0.00 | 0.00 | 36 | 1014.0 |
| 20260831000937 | 25 | 30 | 12.9 | 29.0 | 0.00 | 0.00 | 0.00 | 36 | 1014.0 |
| 20260831000439 | 25 | 52 | 12.9 | 25.7 | 0.00 | 0.00 | 0.00 | 37 | 1014.0 |
| 20260830235939 | 25 | 69 | 14.5 | 25.7 | 0.00 | 0.00 | 0.00 | 36 | 1014.1 |
| 20260830235438 | 25 | 36 | 14.5 | 25.7 | 0.00 | 0.00 | 0.00 | 36 | 1014.1 |
| 20260830234930 | 25 | 16 | 14.5 | 25.7 | 0.00 | 0.00 | 0.00 | 38 | 1014.2 |
| 20260830234431 | 25 | 46 | 14.5 | 24.1 | 0.00 | 0.00 | 0.00 | 35 | 1014.2 |
| 20260830233930 | 25 | 75 | 16.1 | 29.0 | 0.00 | 0.00 | 0.00 | 34 | 1014.3 |
| 20260830233422 | 25 | 357 | 16.1 | 29.0 | 0.00 | 0.00 | 0.00 | 38 | 1014.3 |
| 20260830232920 | 25 | 3 | 14.5 | 27.4 | 0.00 | 0.00 | 0.00 | 38 | 1014.4 |
| 20260830232423 | 25 | 12 | 14.5 | 25.7 | 0.00 | 0.00 | 0.00 | 37 | 1014.7 |
| 20260830231917 | 25 | 0 | 14.5 | 24.1 | 0.00 | 0.00 | 0.00 | 38 | 1014.7 |
| 20260830231418 | 25 | 46 | 12.9 | 24.1 | 0.00 | 0.00 | 0.00 | 37 | 1014.9 |
| 20260830230911 | 25 | 12 | 14.5 | 25.7 | 0.00 | 0.00 | 0.00 | 38 | 1015.0 |
| 20260830230405 | 25 | 21 | 14.5 | 25.7 | 0.00 | 0.00 | 0.00 | 36 | 1015.2 |
| 20260830230349 | 25 | 352 | 14.5 | 24.1 | 0.00 | 0.00 | 0.00 | 38 | 1015.2 |
| 20260830225408 | 25 | 33 | 16.1 | 32.2 | 0.00 | 0.00 | 0.00 | 38 | 1015.2 |
| 20260830225126 | 25 | 9 | 16.1 | 32.2 | 0.00 | 0.00 | 0.00 | 38 | 1015.3 |
| 20260830224405 | 25 | 16 | 14.5 | 25.7 | 0.00 | 0.00 | 0.00 | 40 | 1015.4 |
| 20260830223902 | 25 | 12 | 14.5 | 27.4 | 0.00 | 0.00 | 0.00 | 40 | 1015.5 |
| 20260830223401 | 25 | 15 | 14.5 | 27.4 | 0.00 | 0.00 | 0.00 | 43 | 1015.6 |
| 20260830222900 | 25 | 10 | 14.5 | 25.7 | 0.00 | 0.00 | 0.00 | 43 | 1015.5 |
| 20260830222400 | 25 | 31 | 14.5 | 25.7 | 0.00 | 0.00 | 0.00 | 40 | 1015.7 |
| 20260830221901 | 25 | 15 | 11.3 | 25.7 | 0.00 | 0.00 | 0.00 | 40 | 1015.7 |
| 20260830221358 | 25 | 340 | 11.3 | 25.7 | 0.00 | 0.00 | 0.00 | 41 | 1015.8 |
| 20260830220857 | 25 | 25 | 12.9 | 25.7 | 0.00 | 0.00 | 0.00 | 39 | 1015.8 |
| 20260830220401 | 25 | 357 | 12.9 | 20.9 | 0.00 | 0.00 | 0.00 | 44 | 1015.8 |
| 20260830215859 | 25 | 10 | 14.5 | 24.1 | 0.00 | 0.00 | 0.00 | 40 | 1015.9 |
| 20260830215356 | 25 | 355 | 14.5 | 24.1 | 0.00 | 0.00 | 0.00 | 43 | 1016.0 |
| 20260830214856 | 25 | 332 | 14.5 | 24.1 | 0.00 | 0.00 | 0.00 | 40 | 1016.0 |
| 20260830214354 | 24 | 44 | 14.5 | 27.4 | 0.00 | 0.00 | 0.00 | 41 | 1016.0 |
| 20260830213853 | 24 | 31 | 12.9 | 27.4 | 0.00 | 0.00 | 0.00 | 41 | 1016.1 |
| 20260830213353 | 25 | 36 | 14.5 | 25.7 | 0.00 | 0.00 | 0.00 | 42 | 1016.2 |
| 20260830212851 | 24 | 28 | 16.1 | 25.7 | 0.00 | 0.00 | 0.00 | 43 | 1016.3 |
| 20260830212351 | 25 | 326 | 14.5 | 25.7 | 0.00 | 0.00 | 0.00 | 44 | 1016.4 |
| 20260830211850 | 24 | 9 | 12.9 | 25.7 | 0.00 | 0.00 | 0.00 | 46 | 1016.3 |
| 20260830211351 | 24 | 14 | 14.5 | 22.5 | 0.00 | 0.00 | 0.00 | 45 | 1016.4 |
| 20260830210852 | 24 | 29 | 14.5 | 27.4 | 0.00 | 0.00 | 0.00 | 44 | 1016.5 |
| 20260830210349 | 24 | 10 | 16.1 | 27.4 | 0.00 | 0.00 | 0.00 | 45 | 1016.5 |
| 20260830205848 | 24 | 353 | 14.5 | 25.7 | 0.00 | 0.00 | 0.00 | 45 | 1016.5 |
| 20260830205348 | 23 | 4 | 14.5 | 24.1 | 0.00 | 0.00 | 0.00 | 43 | 1016.7 |
| 20260830205115 | 23 | 4 | 16.1 | 27.4 | 0.00 | 0.00 | 0.00 | 46 | 1016.7 |
| 20260830204346 | 23 | 15 | 16.1 | 27.4 | 0.00 | 0.00 | 0.00 | 46 | 1016.8 |
| 20260830203844 | 23 | 326 | 14.5 | 27.4 | 0.00 | 0.00 | 0.00 | 44 | 1016.8 |
| 20260830203344 | 23 | 4 | 16.1 | 30.6 | 0.00 | 0.00 | 0.00 | 46 | 1016.7 |
| 20260830202844 | 23 | 337 | 14.5 | 30.6 | 0.00 | 0.00 | 0.00 | 45 | 1016.8 |
| 20260830202820 | 23 | 30 | 14.5 | 24.1 | 0.00 | 0.00 | 0.00 | 46 | 1017.0 |
| 20260830201841 | 23 | 11 | 12.9 | 24.1 | 0.00 | 0.00 | 0.00 | 45 | 1017.0 |
| 20260830201607 | 23 | 31 | 12.9 | 20.9 | 0.00 | 0.00 | 0.00 | 47 | 1017.1 |
| 20260830200841 | 23 | 14 | 12.9 | 24.1 | 0.00 | 0.00 | 0.00 | 47 | 1017.2 |
| 20260830200342 | 23 | 347 | 14.5 | 29.0 | 0.00 | 0.00 | 0.00 | 46 | 1017.3 |
| 20260830195841 | 23 | 305 | 14.5 | 29.0 | 0.00 | 0.00 | 0.00 | 46 | 1017.2 |
| 20260830195341 | 23 | 20 | 12.9 | 22.5 | 0.00 | 0.00 | 0.00 | 47 | 1017.3 |
| 20260830194834 | 23 | 37 | 11.3 | 22.5 | 0.00 | 0.00 | 0.00 | 47 | 1017.4 |
| 20260830194549 | 22 | 3 | 11.3 | 20.9 | 0.00 | 0.00 | 0.00 | 53 | 1017.5 |
| 20260830193833 | 22 | 60 | 12.9 | 24.1 | 0.00 | 0.00 | 0.00 | 49 | 1017.7 |
| 20260830193333 | 22 | 20 | 12.9 | 24.1 | 0.00 | 0.00 | 0.00 | 49 | 1017.7 |
| 20260830192832 | 22 | 324 | 14.5 | 25.7 | 0.00 | 0.00 | 0.00 | 53 | 1017.8 |
| 20260830192324 | 21 | 3 | 12.9 | 25.7 | 0.00 | 0.00 | 0.00 | 52 | 1017.8 |
| 20260830191825 | 21 | 41 | 9.7 | 24.1 | 0.00 | 0.00 | 0.00 | 54 | 1018.1 |
| 20260830191325 | 21 | 66 | 12.9 | 25.7 | 0.00 | 0.00 | 0.00 | 53 | 1018.0 |
| 20260830190817 | 21 | 54 | 12.9 | 25.7 | 0.00 | 0.00 | 0.00 | 52 | 1018.1 |
| 20260830190316 | 21 | 25 | 12.9 | 24.1 | 0.00 | 0.00 | 0.00 | 57 | 1018.2 |
| 20260830185817 | 21 | 353 | 12.9 | 24.1 | 0.00 | 0.00 | 0.00 | 56 | 1018.4 |
| 20260830185313 | 21 | 7 | 12.9 | 22.5 | 0.00 | 0.00 | 0.00 | 58 | 1018.4 |
| 20260830184813 | 21 | 18 | 12.9 | 22.5 | 0.00 | 0.00 | 0.00 | 57 | 1018.6 |
| 20260830184310 | 20 | 0 | 14.5 | 25.7 | 0.00 | 0.00 | 0.00 | 58 | 1018.5 |
| 20260830183811 | 20 | 37 | 14.5 | 25.7 | 0.00 | 0.00 | 0.00 | 58 | 1018.6 |
| 20260830183516 | 20 | 354 | 12.9 | 25.7 | 0.00 | 0.00 | 0.00 | 60 | 1018.7 |
| 20260830183406 | 20 | 66 | 12.9 | 25.7 | 0.00 | 0.00 | 0.00 | 58 | 1018.6 |
| 20260830182308 | 20 | 14 | 11.3 | 24.1 | 0.00 | 0.00 | 0.00 | 61 | 1018.7 |
| 20260830181805 | 20 | 11 | 12.9 | 24.1 | 0.00 | 0.00 | 0.00 | 61 | 1018.7 |
| 20260830181304 | 20 | 354 | 12.9 | 27.4 | 0.00 | 0.00 | 0.00 | 63 | 1018.8 |
| 20260830180805 | 19 | 35 | 14.5 | 27.4 | 0.00 | 0.00 | 0.00 | 62 | 1018.7 |
| 20260830180304 | 20 | 12 | 12.9 | 24.1 | 0.00 | 0.00 | 0.00 | 62 | 1018.7 |
| 20260830175803 | 19 | 355 | 11.3 | 24.1 | 0.00 | 0.00 | 0.00 | 64 | 1018.8 |
| 20260830175532 | 19 | 347 | 11.3 | 20.9 | 0.00 | 0.00 | 0.00 | 66 | 1018.8 |
| 20260830174801 | 18 | 32 | 12.9 | 20.9 | 0.00 | 0.00 | 0.00 | 63 | 1018.7 |
| 20260830174259 | 18 | 0 | 9.7 | 22.5 | 0.00 | 0.00 | 0.00 | 64 | 1018.7 |
| 20260830173759 | 18 | 22 | 9.7 | 22.5 | 0.00 | 0.00 | 0.00 | 67 | 1018.7 |
| 20260830173515 | 18 | 38 | 11.3 | 19.3 | 0.00 | 0.00 | 0.00 | 68 | 1018.9 |
| 20260830172758 | 18 | 67 | 9.7 | 19.3 | 0.00 | 0.00 | 0.00 | 68 | 1018.8 |
| 20260830172257 | 18 | 326 | 9.7 | 19.3 | 0.00 | 0.00 | 0.00 | 67 | 1018.8 |
| 20260830171756 | 17 | 16 | 9.7 | 19.3 | 0.00 | 0.00 | 0.00 | 68 | 1018.9 |
| 20260830171259 | 18 | 345 | 8.0 | 19.3 | 0.00 | 0.00 | 0.00 | 69 | 1018.7 |
| 20260830170759 | 17 | 35 | 6.4 | 14.5 | 0.00 | 0.00 | 0.00 | 68 | 1018.9 |
| 20260830170255 | 17 | 40 | 8.0 | 16.1 | 0.00 | 0.00 | 0.00 | 71 | 1018.8 |
| 20260830165754 | 17 | 345 | 6.4 | 16.1 | 0.00 | 0.00 | 0.00 | 69 | 1018.8 |
| 20260830165254 | 17 | 29 | 3.2 | 12.9 | 0.00 | 0.00 | 0.00 | 73 | 1018.8 |
| 20260830164755 | 16 | 322 | 3.2 | 8.0 | 0.00 | 0.00 | 0.00 | 75 | 1019.1 |
| 20260830164254 | 16 | 67 | 3.2 | 11.3 | 0.00 | 0.00 | 0.00 | 77 | 1019.1 |
| 20260830163753 | 15 | 343 | 4.8 | 11.3 | 0.00 | 0.00 | 0.00 | 76 | 1019.2 |
| 20260830163256 | 15 | 62 | 4.8 | 11.3 | 0.00 | 0.00 | 0.00 | 76 | 1019.2 |
| 20260830162749 | 15 | 75 | 1.6 | 9.7 | 0.00 | 0.00 | 0.00 | 79 | 1019.2 |
| 20260830162251 | 15 | 337 | 3.2 | 9.7 | 0.00 | 0.00 | 0.00 | 80 | 1019.3 |
| 20260830161749 | 14 | 61 | 4.8 | 14.5 | 0.00 | 0.00 | 0.00 | 79 | 1019.4 |
| 20260830161517 | 14 | 34 | 6.4 | 14.5 | 0.00 | 0.03 | 0.00 | 79 | 1019.4 |
| 20260830160746 | 14 | 41 | 6.4 | 16.1 | 0.00 | 0.05 | 0.00 | 80 | 1019.4 |
| 20260830160246 | 13 | 18 | 6.4 | 16.1 | 0.00 | 0.05 | 0.00 | 81 | 1019.5 |
| 20260830155750 | 13 | 29 | 4.8 | 12.9 | 0.00 | 0.05 | 0.00 | 83 | 1019.5 |
| 20260830155240 | 13 | 75 | 3.2 | 8.0 | 0.00 | 0.05 | 0.00 | 82 | 1019.6 |
| 20260830154740 | 13 | 355 | 4.8 | 11.3 | 0.00 | 0.05 | 0.00 | 86 | 1019.6 |
| 20260830154506 | 12 | 16 | 4.8 | 11.3 | 0.00 | 0.05 | 0.00 | 84 | 1019.5 |
| 20260830153733 | 12 | 62 | 3.2 | 11.3 | 0.00 | 0.05 | 0.00 | 85 | 1019.7 |
| 20260830153235 | 12 | 8 | 3.2 | 11.3 | 0.00 | 0.05 | 0.00 | 86 | 1019.6 |
| 20260830152735 | 12 | 72 | 1.6 | 11.3 | 0.00 | 0.05 | 0.00 | 87 | 1019.6 |
| 20260830152229 | 12 | 359 | 1.6 | 6.4 | 0.00 | 0.05 | 0.00 | 87 | 1019.7 |
| 20260830151951 | 11 | 45 | 1.6 | 6.4 | 0.00 | 0.05 | 0.00 | 89 | 1019.7 |
| 20260830151213 | 11 | 345 | 0.0 | 3.2 | 0.00 | 0.05 | 0.00 | 90 | 1019.7 |
| 20260830150711 | 11 | 330 | 0.0 | 0.0 | 0.00 | 0.05 | 0.00 | 91 | 1019.7 |
| 20260830150213 | 10 | 330 | 0.0 | 0.0 | 0.00 | 0.05 | 0.00 | 91 | 1019.7 |
| 20260830145715 | 10 | 329 | 0.0 | 0.0 | 0.00 | 0.05 | 0.00 | 92 | 1019.6 |
| 20260830145154 | 10 | 329 | 0.0 | 0.0 | 0.00 | 0.05 | 0.00 | 93 | 1019.6 |
| 20260830144653 | 9 | 329 | 0.0 | 0.0 | 0.00 | 0.05 | 0.00 | 94 | 1019.7 |
| 20260830144138 | 8 | 329 | 0.0 | 0.0 | 0.00 | 0.05 | 0.00 | 94 | 1019.7 |
| 20260830143626 | 8 | 329 | 0.0 | 0.0 | 0.00 | 0.05 | 0.00 | 94 | 1019.7 |
| 20260830143110 | 8 | 329 | 0.0 | 0.0 | 0.00 | 0.05 | 0.00 | 94 | 1019.7 |
| 20260830142605 | 8 | 329 | 0.0 | 0.0 | 0.00 | 0.05 | 0.00 | 94 | 1019.6 |
| 20260830142100 | 7 | 329 | 0.0 | 0.0 | 0.00 | 0.05 | 0.00 | 94 | 1019.6 |
| 20260830141553 | 7 | 329 | 0.0 | 0.0 | 0.00 | 0.05 | 0.00 | 93 | 1019.6 |
| 20260830141052 | 7 | 329 | 0.0 | 0.0 | 0.00 | 0.05 | 0.00 | 92 | 1019.6 |
| 20260830140545 | 8 | 329 | 0.0 | 0.0 | 0.00 | 0.05 | 0.00 | 93 | 1019.5 |
| 20260830140041 | 8 | 329 | 0.0 | 0.0 | 0.00 | 0.05 | 0.00 | 93 | 1019.6 |
| 20260830135535 | 8 | 329 | 0.0 | 0.0 | 0.00 | 0.05 | 0.00 | 93 | 1019.6 |
| 20260830135034 | 8 | 329 | 0.0 | 0.0 | 0.00 | 0.05 | 0.00 | 93 | 1019.5 |
| 20260830134534 | 7 | 329 | 0.0 | 0.0 | 0.00 | 0.05 | 0.00 | 93 | 1019.6 |
| 20260830134250 | 7 | 329 | 0.0 | 0.0 | 0.00 | 0.05 | 0.00 | 93 | 1019.5 |
| 20260830133754 | 7 | 329 | 0.0 | 0.0 | 0.00 | 0.05 | 0.00 | 93 | 1019.4 |
| 20260830133025 | 7 | 329 | 0.0 | 0.0 | 0.00 | 0.05 | 0.00 | 93 | 1019.4 |
| 20260830132527 | 7 | 329 | 0.0 | 0.0 | 0.00 | 0.05 | 0.00 | 93 | 1019.4 |
| 20260830132018 | 7 | 329 | 0.0 | 0.0 | 0.00 | 0.05 | 0.00 | 93 | 1019.4 |
| 20260830131722 | 7 | 329 | 0.0 | 0.0 | 0.00 | 0.05 | 0.00 | 93 | 1019.4 |
| 20260830130958 | 7 | 329 | 0.0 | 0.0 | 0.00 | 0.05 | 0.00 | 93 | 1019.3 |
| 20260830130450 | 7 | 329 | 0.0 | 0.0 | 0.00 | 0.05 | 0.00 | 93 | 1019.3 |
| 20260830125944 | 8 | 329 | 0.0 | 0.0 | 0.00 | 0.05 | 0.00 | 93 | 1019.3 |
| 20260830125440 | 8 | 329 | 0.0 | 0.0 | 0.00 | 0.05 | 0.00 | 93 | 1019.3 |
| 20260830124929 | 8 | 329 | 0.0 | 3.2 | 0.00 | 0.05 | 0.00 | 93 | 1019.2 |
| 20260830124429 | 8 | 329 | 1.6 | 3.2 | 0.00 | 0.05 | 0.00 | 93 | 1019.3 |
| 20260830123930 | 8 | 329 | 1.6 | 3.2 | 0.00 | 0.05 | 0.00 | 93 | 1019.2 |
| 20260830123653 | 8 | 329 | 0.0 | 3.2 | 0.00 | 0.05 | 0.00 | 92 | 1019.4 |
| 20260830122928 | 8 | 329 | 0.0 | 1.6 | 0.00 | 0.05 | 0.00 | 93 | 1019.3 |
| 20260830122418 | 8 | 329 | 0.0 | 3.2 | 0.00 | 0.05 | 0.00 | 92 | 1019.3 |
| 20260830122135 | 8 | 329 | 0.0 | 3.2 | 0.00 | 0.05 | 0.00 | 92 | 1019.3 |
| 20260830121408 | 8 | 329 | 0.0 | 1.6 | 0.00 | 0.05 | 0.00 | 92 | 1019.3 |
| 20260830121108 | 8 | 329 | 0.0 | 1.6 | 0.00 | 0.05 | 0.00 | 92 | 1019.2 |
| 20260830120601 | 8 | 329 | 0.0 | 3.2 | 0.00 | 0.05 | 0.00 | 92 | 1019.3 |
| 20260830120147 | 8 | 329 | 1.6 | 3.2 | 0.00 | 0.05 | 0.00 | 92 | 1019.2 |
| 20260830120046 | 8 | 329 | 0.0 | 1.6 | 0.00 | 0.05 | 0.00 | 91 | 1019.2 |
| 20260830114826 | 8 | 329 | 0.0 | 1.6 | 0.00 | 0.05 | 0.00 | 91 | 1019.2 |
| 20260830114533 | 8 | 329 | 0.0 | 4.8 | 0.00 | 0.05 | 0.00 | 91 | 1019.1 |
| 20260830113752 | 9 | 338 | 0.0 | 0.0 | 0.00 | 0.05 | 0.00 | 91 | 1019.0 |
| 20260830113254 | 9 | 317 | 0.0 | 0.0 | 0.00 | 0.05 | 0.00 | 91 | 1019.1 |
| 20260830112742 | 9 | 324 | 0.0 | 0.0 | 0.00 | 0.05 | 0.00 | 91 | 1019.0 |
| 20260830112229 | 10 | 303 | 0.0 | 0.0 | 0.00 | 0.05 | 0.00 | 92 | 1019.0 |
| 20260830111714 | 10 | 303 | 0.0 | 0.0 | 0.00 | 0.05 | 0.00 | 92 | 1019.0 |
| 20260830111158 | 10 | 324 | 0.0 | 0.0 | 0.00 | 0.05 | 0.00 | 92 | 1018.9 |
| 20260830110659 | 10 | 308 | 0.0 | 0.0 | 0.00 | 0.05 | 0.00 | 92 | 1018.9 |
| 20260830110145 | 10 | 334 | 0.0 | 3.2 | 0.00 | 0.05 | 0.00 | 91 | 1019.0 |
| 20260830105828 | 10 | 334 | 1.6 | 3.2 | 0.00 | 0.05 | 0.00 | 89 | 1019.0 |
| 20260830105719 | 9 | 334 | 1.6 | 3.2 | 0.00 | 0.05 | 0.00 | 90 | 1019.0 |
| 20260830104608 | 10 | 334 | 1.6 | 3.2 | 0.00 | 0.05 | 0.00 | 89 | 1019.0 |
| 20260830104101 | 10 | 334 | 0.0 | 3.2 | 0.00 | 0.05 | 0.00 | 89 | 1019.0 |
| 20260830103606 | 10 | 334 | 1.6 | 4.8 | 0.00 | 0.05 | 0.00 | 89 | 1019.0 |
| 20260830103101 | 10 | 334 | 1.6 | 4.8 | 0.00 | 0.05 | 0.00 | 89 | 1019.0 |
| 20260830102817 | 10 | 334 | 1.6 | 4.8 | 0.00 | 0.05 | 0.00 | 88 | 1019.1 |
| 20260830102057 | 10 | 334 | 3.2 | 4.8 | 0.00 | 0.05 | 0.00 | 88 | 1019.1 |
| 20260830101554 | 10 | 334 | 1.6 | 4.8 | 0.00 | 0.05 | 0.00 | 88 | 1019.1 |
| 20260830101050 | 10 | 334 | 3.2 | 4.8 | 0.00 | 0.05 | 0.00 | 88 | 1019.1 |
| 20260830100553 | 10 | 334 | 1.6 | 4.8 | 0.00 | 0.05 | 0.00 | 88 | 1019.1 |
| 20260830100048 | 10 | 298 | 0.0 | 3.2 | 0.00 | 0.05 | 0.00 | 88 | 1019.1 |
| 20260830095543 | 10 | 298 | 0.0 | 1.6 | 0.00 | 0.05 | 0.00 | 87 | 1019.1 |
| 20260830095040 | 10 | 298 | 0.0 | 1.6 | 0.00 | 0.05 | 0.00 | 87 | 1019.1 |
| 20260830094527 | 10 | 298 | 1.6 | 3.2 | 0.00 | 0.05 | 0.00 | 87 | 1019.0 |
| 20260830094028 | 10 | 298 | 1.6 | 4.8 | 0.00 | 0.05 | 0.00 | 87 | 1019.0 |
| 20260830093525 | 10 | 298 | 3.2 | 4.8 | 0.00 | 0.05 | 0.00 | 87 | 1019.0 |
| 20260830093023 | 10 | 298 | 3.2 | 4.8 | 0.00 | 0.05 | 0.00 | 87 | 1019.0 |
| 20260830092523 | 10 | 298 | 3.2 | 4.8 | 0.00 | 0.05 | 0.00 | 87 | 1019.0 |
| 20260830092252 | 10 | 286 | 3.2 | 4.8 | 0.00 | 0.05 | 0.00 | 87 | 1019.0 |
| 20260830091518 | 10 | 268 | 3.2 | 4.8 | 0.00 | 0.05 | 0.00 | 87 | 1019.0 |
| 20260830091003 | 10 | 270 | 3.2 | 4.8 | 0.00 | 0.05 | 0.00 | 86 | 1019.0 |
| 20260830090952 | 10 | 270 | 3.2 | 4.8 | 0.00 | 0.05 | 0.00 | 86 | 1019.1 |
| 20260830085954 | 10 | 297 | 3.2 | 4.8 | 0.00 | 0.05 | 0.00 | 86 | 1019.1 |
| 20260830085456 | 10 | 297 | 1.6 | 4.8 | 0.00 | 0.05 | 0.00 | 86 | 1019.1 |
| 20260830084955 | 10 | 297 | 0.0 | 3.2 | 0.00 | 0.05 | 0.00 | 86 | 1019.0 |
| 20260830084457 | 10 | 297 | 0.0 | 1.6 | 0.00 | 0.05 | 0.00 | 85 | 1019.0 |
| 20260830083949 | 10 | 297 | 0.0 | 3.2 | 0.00 | 0.05 | 0.00 | 85 | 1019.0 |
| 20260830083710 | 10 | 297 | 1.6 | 4.8 | 0.00 | 0.05 | 0.00 | 85 | 1019.0 |
| 20260830082944 | 11 | 297 | 1.6 | 4.8 | 0.00 | 0.05 | 0.00 | 85 | 1019.0 |
| 20260830082443 | 10 | 314 | 0.0 | 4.8 | 0.00 | 0.05 | 0.00 | 85 | 1019.0 |
| 20260830081933 | 10 | 353 | 0.0 | 0.0 | 0.00 | 0.05 | 0.00 | 85 | 1019.1 |
| 20260830081428 | 10 | 353 | 0.0 | 0.0 | 0.00 | 0.05 | 0.00 | 84 | 1019.1 |
| 20260830080928 | 10 | 353 | 0.0 | 0.0 | 0.00 | 0.05 | 0.00 | 84 | 1019.0 |
| 20260830080419 | 11 | 353 | 0.0 | 0.0 | 0.00 | 0.05 | 0.00 | 84 | 1019.0 |
| 20260830075906 | 11 | 353 | 0.0 | 0.0 | 0.00 | 0.05 | 0.00 | 83 | 1018.9 |
| 20260830075356 | 11 | 353 | 0.0 | 0.0 | 0.00 | 0.05 | 0.00 | 83 | 1018.9 |
| 20260830074851 | 11 | 353 | 0.0 | 0.0 | 0.00 | 0.05 | 0.00 | 83 | 1018.9 |
| 20260830074600 | 11 | 353 | 0.0 | 0.0 | 0.00 | 0.05 | 0.00 | 82 | 1018.9 |
| 20260830073830 | 11 | 353 | 0.0 | 0.0 | 0.00 | 0.05 | 0.00 | 82 | 1018.9 |
| 20260830073329 | 11 | 353 | 0.0 | 3.2 | 0.00 | 0.05 | 0.00 | 83 | 1018.9 |
| 20260830072828 | 11 | 353 | 0.0 | 3.2 | 0.00 | 0.05 | 0.00 | 83 | 1018.8 |
| 20260830072550 | 10 | 353 | 0.0 | 3.2 | 0.00 | 0.05 | 0.00 | 83 | 1018.9 |
| 20260830072049 | 11 | 353 | 0.0 | 3.2 | 0.00 | 0.05 | 0.00 | 82 | 1018.8 |
| 20260830071320 | 11 | 353 | 0.0 | 1.6 | 0.00 | 0.05 | 0.00 | 81 | 1018.7 |
| 20260830071035 | 11 | 353 | 1.6 | 3.2 | 0.00 | 0.05 | 0.00 | 81 | 1018.9 |
| 20260830070243 | 11 | 353 | 1.6 | 3.2 | 0.00 | 0.05 | 0.00 | 81 | 1018.7 |
| 20260830065739 | 11 | 353 | 0.0 | 3.2 | 0.00 | 0.05 | 0.05 | 80 | 1018.7 |
| 20260830065236 | 11 | 353 | 0.0 | 0.0 | 0.00 | 0.05 | 0.05 | 80 | 1018.7 |
| 20260830064737 | 11 | 353 | 0.0 | 0.0 | 0.00 | 0.05 | 0.05 | 80 | 1018.8 |
| 20260830064235 | 11 | 353 | 0.0 | 0.0 | 0.00 | 0.05 | 0.05 | 80 | 1018.7 |
| 20260830063722 | 12 | 353 | 0.0 | 0.0 | 0.00 | 0.05 | 0.05 | 79 | 1018.7 |
| 20260830063216 | 12 | 353 | 0.0 | 0.0 | 0.00 | 0.05 | 0.05 | 79 | 1018.9 |
| 20260830062657 | 12 | 353 | 0.0 | 0.0 | 0.00 | 0.05 | 0.05 | 81 | 1018.9 |
| 20260830062154 | 11 | 353 | 0.0 | 0.0 | 0.00 | 0.05 | 0.05 | 81 | 1018.9 |
| 20260830061640 | 11 | 353 | 0.0 | 0.0 | 0.00 | 0.05 | 0.05 | 79 | 1018.9 |
| 20260830061612 | 12 | 353 | 0.0 | 0.0 | 0.00 | 0.05 | 0.05 | 77 | 1018.7 |
| 20260830060612 | 13 | 353 | 0.0 | 0.0 | 0.00 | 0.05 | 0.05 | 75 | 1018.7 |
| 20260830060106 | 13 | 353 | 0.0 | 3.2 | 0.00 | 0.05 | 0.05 | 74 | 1018.7 |
| 20260830055559 | 13 | 353 | 1.6 | 3.2 | 0.00 | 0.05 | 0.05 | 74 | 1018.7 |
| 20260830055043 | 13 | 353 | 1.6 | 3.2 | 0.00 | 0.05 | 0.05 | 74 | 1018.8 |
| 20260830054534 | 13 | 353 | 1.6 | 4.8 | 0.00 | 0.05 | 0.05 | 74 | 1018.8 |
| 20260830054027 | 13 | 353 | 1.6 | 4.8 | 0.00 | 0.05 | 0.05 | 74 | 1018.9 |
| 20260830053523 | 12 | 339 | 0.0 | 4.8 | 0.00 | 0.05 | 0.05 | 75 | 1018.9 |
| 20260830053016 | 12 | 339 | 0.0 | 4.8 | 0.00 | 0.05 | 0.05 | 74 | 1018.8 |
| 20260830052513 | 13 | 339 | 0.0 | 4.8 | 0.00 | 0.05 | 0.05 | 72 | 1018.7 |
| 20260830052018 | 14 | 339 | 0.0 | 3.2 | 0.00 | 0.05 | 0.05 | 71 | 1018.7 |
| 20260830051513 | 14 | 339 | 1.6 | 4.8 | 0.00 | 0.05 | 0.05 | 70 | 1018.7 |
| 20260830051234 | 14 | 351 | 3.2 | 4.8 | 0.00 | 0.05 | 0.05 | 70 | 1018.7 |
| 20260830050509 | 14 | 349 | 3.2 | 4.8 | 0.00 | 0.05 | 0.05 | 70 | 1018.7 |
| 20260830050007 | 15 | 353 | 1.6 | 4.8 | 0.00 | 0.05 | 0.05 | 69 | 1018.7 |
| 20260830045504 | 15 | 14 | 1.6 | 3.2 | 0.00 | 0.05 | 0.05 | 68 | 1018.8 |
| 20260830045003 | 15 | 14 | 1.6 | 4.8 | 0.00 | 0.05 | 0.05 | 67 | 1018.9 |
| 20260830044455 | 15 | 14 | 1.6 | 4.8 | 0.00 | 0.05 | 0.05 | 67 | 1018.7 |
| 20260830044000 | 15 | 35 | 1.6 | 4.8 | 0.00 | 0.05 | 0.05 | 66 | 1018.7 |
| 20260830043457 | 15 | 35 | 1.6 | 6.4 | 0.00 | 0.05 | 0.05 | 67 | 1018.8 |
| 20260830043202 | 15 | 35 | 3.2 | 6.4 | 0.00 | 0.05 | 0.05 | 67 | 1018.7 |
| 20260830042437 | 16 | 42 | 3.2 | 6.4 | 0.00 | 0.05 | 0.05 | 67 | 1018.8 |
| 20260830041934 | 15 | 40 | 1.6 | 4.8 | 0.00 | 0.05 | 0.05 | 67 | 1018.7 |
| 20260830041436 | 15 | 2 | 0.0 | 1.6 | 0.00 | 0.05 | 0.05 | 67 | 1018.7 |
| 20260830040917 | 15 | 2 | 1.6 | 4.8 | 0.00 | 0.05 | 0.05 | 68 | 1018.5 |
| 20260830040411 | 16 | 2 | 1.6 | 4.8 | 0.00 | 0.05 | 0.05 | 67 | 1018.4 |
| 20260830035901 | 16 | 24 | 3.2 | 8.0 | 0.00 | 0.05 | 0.05 | 66 | 1018.4 |
| 20260830035357 | 16 | 18 | 4.8 | 9.7 | 0.00 | 0.05 | 0.05 | 66 | 1018.4 |
| 20260830034857 | 16 | 347 | 4.8 | 9.7 | 0.00 | 0.05 | 0.05 | 66 | 1018.3 |
| 20260830034353 | 16 | 342 | 4.8 | 9.7 | 0.00 | 0.05 | 0.05 | 65 | 1018.2 |
| 20260830033851 | 16 | 354 | 6.4 | 14.5 | 0.00 | 0.05 | 0.05 | 65 | 1018.2 |
| 20260830033353 | 17 | 20 | 6.4 | 14.5 | 0.00 | 0.05 | 0.05 | 64 | 1018.1 |
| 20260830032854 | 17 | 12 | 6.4 | 16.1 | 0.00 | 0.05 | 0.05 | 63 | 1018.0 |
| 20260830032624 | 17 | 4 | 6.4 | 16.1 | 0.00 | 0.05 | 0.05 | 63 | 1017.9 |